Location: ????????
(55.3975°N, 38.2844°E)
Time: 04:55:47
(UTC+00:00)

BlueWalker 3 - Pass Details

Date: 19 August 2024
Orbit: 476 x 487 km, 53.2° (Epoch: 08 September)

Event Time Altitude Azimuth Distance (km) Brightness Sun altitude
Exits shadow 21:48:06 16° 93° (E) 1,337 4.1 -22.1°
Drops below altitude 10° 21:49:00 10° 90° (E) 1,686 4.6 -22.1°
Sets 21:51:13 0° 85° (E) 2,571 5.7 -22.1°
